Weather History for YPEA - February, 2013

Change the Weather History Date:

Monday, February 11, 2013

  Actual Average (YPPH) Record (YPPH)
Temperature  
Mean Temperature 87 °F -  
Max Temperature 100 °F 87 °F 102 °F (2009)
Min Temperature 74 °F 62 °F 51 °F (1998)
Cooling Degree Days 22    
Growing Degree Days 37 (Base 50)    
Moisture  
Dew Point 43 °F    
Average Humidity 19    
Maximum Humidity 34    
Minimum Humidity 6    
Precipitation  
Precipitation 0.00 in - - ()
Sea Level Pressure  
Sea Level Pressure 29.85 in    
Wind  
Wind Speed 13 mph ()    
Max Wind Speed 21 mph    
Max Gust Speed 32 mph    
Visibility 7.5 miles    
Events Rain    
Averages and records for this station are not official NWS values.
T = Trace of Precipitation, MM = Missing Value Source: Averaged Metar Reports

Daily Weather History Graph

Daily Weather History Graph

Search for Another Location

Airport or City:

Trip Planner

Search our weather history database for the weather conditions in past years. The results will help you decide how hot, cold, wet, or windy it might be!

Date:

Astronomy

Feb. 11, 2013 Rise Set
Actual Time 5:50 AM AWST 7:09 PM AWST
Civil Twilight 5:24 AM AWST 7:34 PM AWST
Nautical Twilight 4:54 AM AWST 8:05 PM AWST
Astronomical Twilight 4:22 AM AWST 8:37 PM AWST
Moon 6:39 AM AWST (2/11) 7:30 PM AWST (2/11)
Length of Visible Light 14h 10m
Length of Day
13h 18m
New Moon, 1% of the Moon is Illuminated
Feb 11
New Moon
Feb 18
First Quarter
Feb 26
Full
Mar 5
Last Quarter
Mar 12
New

Hourly Weather History & Observations

Time (AWST) Temp. Dew Point Humidity Pressure Visibility Wind Dir Wind Speed Gust Speed Precip Events Conditions
12:00 AM 87 °F 37 °F 9% 29.85 in - East 16.1 mph - -  
12:00 AM 87.8 °F 37.4 °F 17% 29.86 in 6.2 mi East 16.1 mph - N/A   Unknown
12:24 AM 87.8 °F 39.2 °F 18% 29.83 in 6.2 mi East 17.3 mph 28.8 mph N/A   Unknown
1:00 AM 86.0 °F 39.2 °F 19% 29.83 in 6.2 mi East 19.6 mph - N/A   Unknown
1:14 AM 84.2 °F 41.0 °F 22% 29.83 in 6.2 mi East 18.4 mph 29.9 mph N/A   Unknown
2:04 AM 82.4 °F 44.6 °F 26% 29.83 in 6.2 mi East 18.4 mph 32.2 mph N/A   Unknown
3:00 AM 81 °F 45 °F 18% 29.84 in - East 18.4 mph - -  
3:00 AM 80.6 °F 44.6 °F 28% 29.83 in 6.2 mi East 18.4 mph - N/A   Unknown
3:26 AM 80.6 °F 44.6 °F 28% 29.83 in 6.2 mi East 18.4 mph 31.1 mph N/A   Unknown
4:00 AM 78.8 °F 44.6 °F 30% 29.83 in 6.2 mi East 17.3 mph - N/A   Unknown
4:17 AM 78.8 °F 46.4 °F 32% 29.83 in 6.2 mi East 18.4 mph 29.9 mph N/A   Unknown
5:00 AM 78.8 °F 46.4 °F 32% 29.86 in 6.2 mi East 10.4 mph - N/A   Unknown
6:00 AM 77 °F 46 °F 23% 29.88 in - ENE 8.1 mph - -  
6:00 AM 77.0 °F 46.4 °F 34% 29.89 in - ENE 8.1 mph - N/A   Clear
7:00 AM 78.8 °F 46.4 °F 32% 29.86 in - East 15.0 mph - N/A   Clear
7:59 AM 84.2 °F 46.4 °F 27% 29.86 in - East 19.6 mph 31.1 mph N/A   Clear
9:00 AM 88 °F 44 °F 13% 29.87 in 19 mi ENE 20.7 mph - -   Partly Cloudy
9:00 AM 87.8 °F 44.6 °F 22% 29.86 in - ENE 20.7 mph 32.2 mph N/A   Clear
10:00 AM 89.6 °F 44.6 °F 21% 29.89 in - North 8.1 mph - N/A   Clear
11:00 AM 95.0 °F 44.6 °F 18% 29.89 in - NE 6.9 mph - N/A   Clear
12:00 PM 96 °F 42 °F 8% 29.88 in - NNE 8.1 mph - -  
12:00 PM 95.0 °F 42.8 °F 16% 29.89 in - NNE 8.1 mph - N/A   Clear
1:00 PM 96.8 °F 41.0 °F 15% 29.86 in 6.2 mi NE 3.5 mph - N/A Rain Light Rain Showers
2:00 PM 98.6 °F 41.0 °F 14% 29.86 in - SW 4.6 mph - N/A   Clear
3:00 PM 99 °F 39 °F 6% 29.84 in 19 mi ESE 6.9 mph - -   Partly Cloudy
3:00 PM 98.6 °F 39.2 °F 13% 29.83 in - ESE 6.9 mph - N/A   Clear
4:00 PM 96.8 °F 39.2 °F 14% 29.83 in - SE 11.5 mph - N/A   Clear
5:00 PM 96.8 °F 39.2 °F 14% 29.83 in - South 13.8 mph - N/A   Clear
6:00 PM 95 °F 40 °F 8% 29.84 in - South 15.0 mph - -  
6:00 PM 95.0 °F 41.0 °F 15% 29.83 in 6.2 mi South 15.0 mph - N/A   Unknown
7:00 PM 91.4 °F 42.8 °F 18% 29.86 in 6.2 mi South 8.1 mph - N/A   Unknown
8:00 PM 91.4 °F 42.8 °F 18% 29.86 in 6.2 mi ESE 6.9 mph - N/A   Unknown
9:00 PM 90 °F 44 °F 12% 29.86 in - East 12.7 mph - -  
9:00 PM 91.4 °F 44.6 °F 20% 29.86 in 6.2 mi East 12.7 mph - N/A   Unknown
10:00 PM 89.6 °F 42.8 °F 20% 29.86 in 6.2 mi East 9.2 mph - N/A   Unknown
11:00 PM 89.6 °F 44.6 °F 21% 29.83 in 6.2 mi East 12.7 mph - N/A   Unknown